BAW454B MYNN-MWCR

Flight info

Callsign BAW454B
Flight time 1h 34m
Altitude 39000
Route JEFRY G437 DYNAH UG437 ULBAS UM330 KANEX GORAN3
Aircraft B772/H-SDE2E3FGHIJ5LORVWXY/LB1D1

Departure

Time 2026-05-04 20:24
Airport Lynden Pindling International Airport (MYNN)

Arrival

Time 2026-05-04 21:58
Airport Owen Roberts International Airport (MWCR)
Time Latitude Longitude Altitude Speed Heading
2026-05-04 19:55 25.05045 -77.46844 21 ft 0 kts 347°
2026-05-04 20:12 25.05033 -77.46841 24 ft 4 kts 341°
2026-05-04 20:12 25.05011 -77.46827 23 ft 4 kts 300°
2026-05-04 20:13 25.05008 -77.46804 27 ft 2 kts 246°
2026-05-04 20:13 25.05010 -77.46799 26 ft 0 kts 245°
2026-05-04 20:19 25.05005 -77.46813 27 ft 4 kts 247°
2026-05-04 20:19 25.04996 -77.46838 26 ft 0 kts 248°
2026-05-04 20:19 25.04991 -77.46852 21 ft 7 kts 247°
2026-05-04 20:19 25.04985 -77.46958 26 ft 18 kts 298°
2026-05-04 20:20 25.05055 -77.47048 26 ft 13 kts 305°
2026-05-04 20:20 25.05043 -77.47106 26 ft 8 kts 237°
2026-05-04 20:20 25.05054 -77.47164 23 ft 8 kts 311°
2026-05-04 20:20 25.05097 -77.47215 27 ft 10 kts 314°
2026-05-04 20:21 25.05150 -77.47270 25 ft 11 kts 313°
2026-05-04 20:21 25.05204 -77.47333 26 ft 12 kts 314°
2026-05-04 20:21 25.05187 -77.47501 28 ft 12 kts 230°
2026-05-04 20:22 25.05120 -77.47497 29 ft 5 kts 141°
2026-05-04 20:22 25.05120 -77.47496 29 ft 0 kts 141°
2026-05-04 20:22 25.05119 -77.47496 29 ft 1 kts 141°
2026-05-04 20:23 25.05108 -77.47484 28 ft 3 kts 137°
2026-05-04 20:23 25.05101 -77.47477 24 ft 0 kts 134°
2026-05-04 20:23 25.05091 -77.47465 25 ft 15 kts 136°
2026-05-04 20:23 25.04817 -77.47164 28 ft 100 kts 136°
2026-05-04 20:24 25.04147 -77.46415 43 ft 169 kts 134°
2026-05-04 20:24 25.03283 -77.45469 706 ft 179 kts 132°
2026-05-04 20:24 25.02316 -77.44458 1284 ft 203 kts 143°
2026-05-04 20:24 25.01118 -77.43570 2057 ft 211 kts 149°
2026-05-04 20:25 24.99894 -77.42682 2964 ft 209 kts 158°
2026-05-04 20:25 24.98448 -77.42403 3559 ft 222 kts 192°
2026-05-04 20:25 24.97000 -77.43170 3882 ft 249 kts 229°
2026-05-04 20:25 24.96266 -77.44892 4697 ft 255 kts 265°
2026-05-04 20:26 24.96300 -77.46837 5560 ft 257 kts 266°
2026-05-04 20:26 24.95773 -77.48736 6480 ft 264 kts 239°
2026-05-04 20:26 24.94554 -77.50246 7525 ft 268 kts 219°
2026-05-04 20:26 24.92900 -77.51177 8365 ft 276 kts 204°
2026-05-04 20:27 24.91071 -77.51916 9253 ft 283 kts 203°
2026-05-04 20:27 24.89204 -77.52662 10234 ft 287 kts 203°
2026-05-04 20:27 24.87264 -77.53441 10838 ft 309 kts 204°
2026-05-04 20:27 24.85136 -77.54308 11084 ft 343 kts 204°
2026-05-04 20:28 24.82834 -77.55248 11748 ft 359 kts 204°
2026-05-04 20:28 24.80465 -77.56216 12785 ft 365 kts 204°
2026-05-04 20:28 24.78064 -77.57198 13933 ft 371 kts 204°
2026-05-04 20:28 24.75630 -77.58197 14931 ft 375 kts 204°
2026-05-04 20:29 24.73172 -77.59209 15956 ft 379 kts 204°
2026-05-04 20:29 24.70692 -77.60231 16998 ft 382 kts 204°
2026-05-04 20:29 24.68187 -77.61264 17992 ft 387 kts 204°
2026-05-04 20:29 24.65648 -77.62312 18831 ft 392 kts 204°
2026-05-04 20:30 24.63072 -77.63374 19633 ft 398 kts 204°
2026-05-04 20:30 24.60495 -77.64435 20418 ft 402 kts 204°
2026-05-04 20:30 24.57860 -77.65521 21229 ft 407 kts 205°
2026-05-04 20:30 24.55229 -77.66702 22006 ft 411 kts 207°
2026-05-04 20:31 24.52591 -77.67960 22765 ft 415 kts 207°
2026-05-04 20:31 24.49925 -77.69241 23476 ft 421 kts 207°
2026-05-04 20:31 24.47200 -77.70533 23983 ft 430 kts 207°
2026-05-04 20:31 24.44437 -77.71825 24599 ft 433 kts 207°
2026-05-04 20:32 24.41651 -77.73119 25297 ft 435 kts 207°
2026-05-04 20:32 24.38849 -77.74415 25990 ft 438 kts 207°
2026-05-04 20:32 24.36031 -77.75717 26650 ft 442 kts 207°
2026-05-04 20:32 24.33182 -77.77033 27275 ft 446 kts 207°
2026-05-04 20:33 24.30302 -77.78364 27898 ft 450 kts 207°
2026-05-04 20:33 24.27400 -77.79706 28523 ft 454 kts 207°
2026-05-04 20:33 24.24473 -77.81059 29161 ft 458 kts 207°
2026-05-04 20:33 24.21518 -77.82425 29786 ft 462 kts 207°
2026-05-04 20:34 24.18576 -77.83784 30322 ft 466 kts 207°
2026-05-04 20:34 24.15586 -77.85164 30866 ft 467 kts 207°
2026-05-04 20:34 24.12581 -77.86549 31408 ft 468 kts 208°
2026-05-04 20:34 24.09577 -77.87934 31963 ft 468 kts 208°
2026-05-04 20:35 24.06583 -77.89313 32643 ft 464 kts 208°
2026-05-04 20:35 24.03622 -77.90676 33407 ft 459 kts 208°
2026-05-04 20:35 24.00699 -77.92023 34148 ft 453 kts 208°
2026-05-04 20:35 23.97801 -77.93357 34730 ft 450 kts 208°
2026-05-04 20:36 23.94924 -77.94688 35251 ft 447 kts 210°
2026-05-04 20:36 23.92125 -77.96129 35755 ft 443 kts 212°
2026-05-04 20:36 23.89355 -77.97603 36260 ft 440 kts 213°
2026-05-04 20:36 23.86610 -77.99073 36767 ft 438 kts 213°
2026-05-04 20:37 23.83915 -78.00515 37292 ft 435 kts 214°
2026-05-04 20:37 23.81204 -78.01960 37821 ft 432 kts 214°
2026-05-04 20:37 23.78503 -78.03397 38326 ft 430 kts 214°
2026-05-04 20:37 23.75823 -78.04821 38776 ft 428 kts 214°
2026-05-04 20:38 23.73144 -78.06244 39021 ft 430 kts 214°
2026-05-04 20:38 23.70435 -78.07685 38992 ft 435 kts 214°
2026-05-04 20:38 23.64999 -78.10552 38982 ft 430 kts 214°
2026-05-04 20:39 23.59647 -78.13365 38961 ft 426 kts 214°
2026-05-04 20:39 23.54312 -78.16179 38984 ft 426 kts 214°
2026-05-04 20:40 23.48962 -78.19000 38993 ft 428 kts 214°
2026-05-04 20:40 23.43613 -78.21817 38992 ft 430 kts 214°
2026-05-04 20:41 23.38210 -78.24659 38991 ft 431 kts 214°
2026-05-04 20:41 23.32789 -78.27508 38992 ft 432 kts 214°
2026-05-04 20:42 23.27384 -78.30345 38982 ft 434 kts 213°
2026-05-04 20:42 23.21919 -78.33213 38992 ft 437 kts 213°
2026-05-04 20:43 23.16424 -78.36094 38994 ft 440 kts 213°
2026-05-04 20:43 23.10897 -78.38988 38992 ft 442 kts 213°
2026-05-04 20:44 23.05381 -78.41876 38990 ft 443 kts 213°
2026-05-04 20:44 22.99821 -78.44780 38965 ft 443 kts 213°
2026-05-04 20:45 22.94272 -78.47679 38984 ft 441 kts 213°
2026-05-04 20:45 22.88738 -78.50573 38980 ft 440 kts 213°
2026-05-04 20:46 22.83234 -78.53453 38983 ft 438 kts 213°
2026-05-04 20:46 22.77784 -78.56298 38983 ft 437 kts 213°
2026-05-04 20:47 22.72294 -78.59152 38981 ft 437 kts 213°
2026-05-04 20:47 22.66817 -78.61993 38970 ft 436 kts 212°
2026-05-04 20:48 22.61335 -78.64840 38978 ft 437 kts 212°
2026-05-04 20:48 22.55833 -78.67696 38982 ft 438 kts 212°
2026-05-04 20:49 22.51259 -78.70070 38987 ft 440 kts 212°
2026-05-04 20:49 22.44827 -78.73404 38978 ft 441 kts 212°
2026-05-04 20:50 22.40180 -78.75810 38985 ft 442 kts 212°
2026-05-04 20:50 22.34604 -78.78694 38986 ft 447 kts 212°
2026-05-04 20:51 22.28972 -78.81608 38973 ft 450 kts 212°
2026-05-04 20:51 22.23347 -78.84512 38981 ft 451 kts 212°
2026-05-04 20:52 22.17669 -78.87441 38981 ft 452 kts 212°
2026-05-04 20:52 22.11981 -78.90372 38980 ft 453 kts 212°
2026-05-04 20:53 22.06293 -78.93301 38946 ft 452 kts 213°
2026-05-04 20:53 22.00621 -78.96219 38970 ft 451 kts 213°
2026-05-04 20:54 21.94971 -78.99125 38969 ft 450 kts 213°
2026-05-04 20:54 21.89360 -79.02008 38972 ft 449 kts 213°
2026-05-04 20:55 21.83727 -79.04902 38974 ft 448 kts 213°
2026-05-04 20:55 21.78094 -79.07795 38972 ft 448 kts 213°
2026-05-04 20:56 21.72488 -79.10705 38960 ft 444 kts 216°
2026-05-04 20:56 21.67389 -79.14302 38986 ft 435 kts 225°
2026-05-04 20:57 21.62863 -79.18556 38985 ft 431 kts 228°
2026-05-04 20:57 21.58387 -79.22868 38979 ft 433 kts 228°
2026-05-04 20:58 21.53884 -79.27180 38976 ft 434 kts 228°
2026-05-04 20:58 21.49394 -79.31461 38978 ft 435 kts 228°
2026-05-04 20:59 21.44865 -79.35773 38965 ft 435 kts 227°
2026-05-04 20:59 21.40325 -79.40093 38985 ft 436 kts 227°
2026-05-04 21:00 21.35781 -79.44416 38990 ft 437 kts 227°
2026-05-04 21:00 21.31233 -79.48738 38990 ft 437 kts 227°
2026-05-04 21:01 21.26678 -79.53056 38974 ft 437 kts 227°
2026-05-04 21:01 21.22146 -79.57346 38979 ft 437 kts 227°
2026-05-04 21:02 21.17592 -79.61656 38975 ft 436 kts 227°
2026-05-04 21:02 21.13045 -79.65961 38976 ft 436 kts 227°
2026-05-04 21:03 21.08497 -79.70263 38990 ft 436 kts 227°
2026-05-04 21:03 21.03952 -79.74559 38994 ft 435 kts 227°
2026-05-04 21:04 20.99409 -79.78850 38982 ft 435 kts 227°
2026-05-04 21:04 20.94893 -79.83110 38981 ft 435 kts 227°
2026-05-04 21:05 20.90353 -79.87391 38985 ft 435 kts 227°
2026-05-04 21:05 20.85820 -79.91662 38988 ft 434 kts 227°
2026-05-04 21:06 20.81285 -79.95933 38987 ft 435 kts 227°
2026-05-04 21:06 20.76734 -80.00212 38989 ft 436 kts 227°
2026-05-04 21:07 20.72243 -80.04432 38197 ft 436 kts 226°
2026-05-04 21:07 20.69960 -80.06576 37515 ft 442 kts 226°
2026-05-04 21:07 20.67655 -80.08745 36771 ft 450 kts 226°
2026-05-04 21:08 20.65301 -80.10955 36084 ft 449 kts 226°
2026-05-04 21:08 20.62964 -80.13144 35499 ft 445 kts 226°
2026-05-04 21:08 20.60645 -80.15315 34900 ft 441 kts 226°
2026-05-04 21:08 20.58350 -80.17467 34324 ft 438 kts 226°
2026-05-04 21:09 20.56063 -80.19612 33729 ft 435 kts 226°
2026-05-04 21:09 20.53795 -80.21739 33134 ft 431 kts 226°
2026-05-04 21:09 20.51548 -80.23840 32559 ft 427 kts 225°
2026-05-04 21:09 20.49318 -80.25923 32028 ft 424 kts 225°
2026-05-04 21:10 20.47105 -80.27986 31510 ft 421 kts 225°
2026-05-04 21:10 20.44907 -80.30033 31000 ft 418 kts 225°
2026-05-04 21:10 20.42746 -80.32047 30485 ft 416 kts 225°
2026-05-04 21:10 20.40574 -80.34073 29954 ft 415 kts 225°
2026-05-04 21:11 20.38405 -80.36096 29367 ft 413 kts 225°
2026-05-04 21:11 20.36241 -80.38112 28811 ft 411 kts 225°
2026-05-04 21:11 20.34097 -80.40110 28285 ft 409 kts 225°
2026-05-04 21:11 20.31967 -80.42095 27774 ft 406 kts 225°
2026-05-04 21:12 20.29838 -80.44077 27261 ft 405 kts 225°
2026-05-04 21:12 20.27721 -80.46048 26767 ft 403 kts 224°
2026-05-04 21:12 20.25614 -80.48009 26266 ft 402 kts 224°
2026-05-04 21:12 20.23513 -80.49964 25785 ft 400 kts 224°
2026-05-04 21:13 20.21417 -80.51913 25277 ft 400 kts 224°
2026-05-04 21:13 20.19320 -80.53863 24796 ft 399 kts 224°
2026-05-04 21:13 20.17230 -80.55806 24309 ft 399 kts 224°
2026-05-04 21:13 20.15134 -80.57753 23841 ft 399 kts 224°
2026-05-04 21:14 20.13040 -80.59698 23300 ft 399 kts 224°
2026-05-04 21:14 20.10949 -80.61639 22787 ft 397 kts 224°
2026-05-04 21:14 20.08877 -80.63561 22290 ft 394 kts 224°
2026-05-04 21:14 20.06850 -80.65442 21820 ft 390 kts 224°
2026-05-04 21:15 20.04809 -80.67336 21362 ft 387 kts 224°
2026-05-04 21:15 20.02789 -80.69209 20904 ft 383 kts 224°
2026-05-04 21:15 20.00787 -80.71062 20448 ft 380 kts 223°
2026-05-04 21:15 19.98880 -80.72981 19995 ft 374 kts 229°
2026-05-04 21:16 19.97187 -80.75063 19557 ft 370 kts 233°
2026-05-04 21:16 19.95585 -80.77194 19104 ft 367 kts 233°
2026-05-04 21:16 19.94012 -80.79321 18657 ft 365 kts 233°
2026-05-04 21:16 19.92444 -80.81428 18204 ft 363 kts 233°
2026-05-04 21:17 19.90890 -80.83491 17716 ft 360 kts 233°
2026-05-04 21:17 19.89326 -80.85547 17246 ft 356 kts 232°
2026-05-04 21:17 19.87771 -80.87576 16811 ft 352 kts 232°
2026-05-04 21:17 19.86229 -80.89578 16386 ft 349 kts 232°
2026-05-04 21:18 19.84695 -80.91564 15955 ft 346 kts 232°
2026-05-04 21:18 19.83171 -80.93534 15536 ft 343 kts 232°
2026-05-04 21:18 19.81659 -80.95487 15125 ft 341 kts 232°
2026-05-04 21:18 19.80153 -80.97430 14714 ft 340 kts 232°
2026-05-04 21:19 19.78655 -80.99363 14294 ft 339 kts 232°
2026-05-04 21:19 19.77160 -81.01291 13869 ft 338 kts 232°
2026-05-04 21:19 19.75668 -81.03214 13422 ft 337 kts 232°
2026-05-04 21:19 19.74186 -81.05124 12994 ft 334 kts 231°
2026-05-04 21:20 19.72712 -81.07024 12574 ft 332 kts 231°
2026-05-04 21:20 19.71249 -81.08909 12170 ft 330 kts 231°
2026-05-04 21:20 19.69796 -81.10778 11772 ft 328 kts 231°
2026-05-04 21:20 19.68349 -81.12641 11379 ft 326 kts 231°
2026-05-04 21:21 19.66908 -81.14494 10982 ft 325 kts 231°
2026-05-04 21:21 19.65473 -81.16341 10585 ft 324 kts 231°
2026-05-04 21:21 19.64057 -81.18162 10393 ft 315 kts 231°
2026-05-04 21:21 19.62685 -81.19926 10242 ft 303 kts 231°
2026-05-04 21:22 19.61387 -81.21592 10107 ft 291 kts 230°
2026-05-04 21:22 19.60099 -81.23246 9946 ft 285 kts 230°
2026-05-04 21:22 19.58846 -81.24855 9637 ft 287 kts 230°
2026-05-04 21:22 19.57580 -81.26480 9311 ft 283 kts 230°
2026-05-04 21:23 19.56337 -81.28077 9010 ft 278 kts 230°
2026-05-04 21:23 19.55110 -81.29652 8707 ft 277 kts 230°
2026-05-04 21:23 19.53881 -81.31228 8401 ft 278 kts 230°
2026-05-04 21:23 19.52642 -81.32818 8101 ft 280 kts 230°
2026-05-04 21:24 19.51400 -81.34410 7788 ft 280 kts 229°
2026-05-04 21:24 19.50159 -81.36002 7471 ft 279 kts 229°
2026-05-04 21:24 19.48929 -81.37580 7179 ft 277 kts 230°
2026-05-04 21:24 19.47703 -81.39152 6869 ft 275 kts 230°
2026-05-04 21:25 19.46506 -81.40685 6579 ft 272 kts 229°
2026-05-04 21:25 19.45303 -81.42226 6273 ft 270 kts 229°
2026-05-04 21:25 19.44112 -81.43753 5964 ft 268 kts 230°
2026-05-04 21:25 19.42931 -81.45265 5670 ft 265 kts 229°
2026-05-04 21:26 19.41761 -81.46763 5371 ft 263 kts 229°
2026-05-04 21:26 19.40600 -81.48251 5091 ft 260 kts 229°
2026-05-04 21:26 19.39445 -81.49728 4801 ft 260 kts 229°
2026-05-04 21:26 19.38292 -81.51203 4503 ft 259 kts 229°
2026-05-04 21:27 19.37144 -81.52669 4233 ft 257 kts 229°
2026-05-04 21:27 19.36005 -81.54095 4107 ft 250 kts 224°
2026-05-04 21:27 19.34523 -81.55043 3943 ft 253 kts 191°
2026-05-04 21:27 19.32824 -81.54983 3708 ft 240 kts 165°
2026-05-04 21:28 19.31245 -81.54540 3417 ft 229 kts 165°
2026-05-04 21:28 19.29747 -81.54146 3041 ft 215 kts 165°
2026-05-04 21:28 19.28313 -81.53769 2697 ft 212 kts 165°
2026-05-04 21:28 19.26927 -81.53332 2459 ft 199 kts 149°
2026-05-04 21:29 19.26034 -81.52363 2407 ft 177 kts 112°
2026-05-04 21:29 19.25766 -81.51082 2440 ft 179 kts 95°
2026-05-04 21:29 19.25862 -81.49831 2471 ft 161 kts 75°
2026-05-04 21:29 19.26155 -81.48756 2271 ft 144 kts 77°
2026-05-04 21:30 19.26407 -81.47737 2127 ft 145 kts 76°
2026-05-04 21:30 19.26663 -81.46688 2101 ft 151 kts 76°
2026-05-04 21:30 19.26917 -81.45636 2033 ft 148 kts 76°
2026-05-04 21:30 19.27176 -81.44569 1990 ft 151 kts 76°
2026-05-04 21:31 19.27698 -81.42411 1978 ft 151 kts 75°
2026-05-04 21:31 19.27958 -81.41333 1936 ft 151 kts 76°
2026-05-04 21:31 19.28216 -81.40253 1677 ft 153 kts 76°
2026-05-04 21:32 19.28517 -81.38993 1523 ft 206 kts 77°
2026-05-04 21:32 19.28848 -81.37608 2389 ft 135 kts 76°
2026-05-04 21:32 19.28998 -81.37084 3072 ft 56 kts 74°
2026-05-04 21:32 19.29211 -81.36138 954 ft 228 kts 84°
2026-05-04 21:33 19.29309 -81.34625 2766 ft 176 kts 86°
2026-05-04 21:33 19.29616 -81.33357 4136 ft 189 kts 64°
2026-05-04 21:33 19.30193 -81.32014 4792 ft 214 kts 70°
2026-05-04 21:33 19.30732 -81.30461 4959 ft 226 kts 67°
2026-05-04 21:34 19.31717 -81.29190 4686 ft 232 kts 29°
2026-05-04 21:34 19.33284 -81.28867 4374 ft 234 kts 352°
2026-05-04 21:34 19.34779 -81.29532 3932 ft 238 kts 320°
2026-05-04 21:34 19.35780 -81.30919 3572 ft 241 kts 291°
2026-05-04 21:35 19.36020 -81.32654 3244 ft 241 kts 259°
2026-05-04 21:35 19.35383 -81.34238 3057 ft 229 kts 236°
2026-05-04 21:35 19.34551 -81.35684 2946 ft 229 kts 238°
2026-05-04 21:35 19.33750 -81.37123 2870 ft 223 kts 238°
2026-05-04 21:36 19.32983 -81.38515 2671 ft 217 kts 238°
2026-05-04 21:36 19.32228 -81.39892 2364 ft 216 kts 238°
2026-05-04 21:36 19.31479 -81.41264 2023 ft 214 kts 239°
2026-05-04 21:36 19.30754 -81.42599 2010 ft 212 kts 239°
2026-05-04 21:37 19.30254 -81.43522 2008 ft 216 kts 239°
2026-05-04 21:37 19.29509 -81.44901 2008 ft 216 kts 239°
2026-05-04 21:37 19.28768 -81.46276 1989 ft 213 kts 239°
2026-05-04 21:37 19.27810 -81.48058 2048 ft 210 kts 239°
2026-05-04 21:38 19.27090 -81.49393 1999 ft 206 kts 239°
2026-05-04 21:38 19.26399 -81.50676 1985 ft 195 kts 239°
2026-05-04 21:38 19.25946 -81.51515 1986 ft 195 kts 238°
2026-05-04 21:38 19.25273 -81.52760 2003 ft 195 kts 239°
2026-05-04 21:39 19.24599 -81.54010 2001 ft 196 kts 238°
2026-05-04 21:39 19.23916 -81.55267 2006 ft 199 kts 238°
2026-05-04 21:39 19.23221 -81.56535 2012 ft 199 kts 238°
2026-05-04 21:39 19.22522 -81.57801 2015 ft 199 kts 238°
2026-05-04 21:40 19.21822 -81.59059 2011 ft 197 kts 237°
2026-05-04 21:40 19.21124 -81.60306 2008 ft 197 kts 237°
2026-05-04 21:40 19.20431 -81.61543 1923 ft 192 kts 238°
2026-05-04 21:40 19.19759 -81.62728 1788 ft 182 kts 236°
2026-05-04 21:41 19.18823 -81.63562 1515 ft 179 kts 188°
2026-05-04 21:41 19.17655 -81.63297 1517 ft 176 kts 137°
2026-05-04 21:41 19.17163 -81.62200 1516 ft 171 kts 87°
2026-05-04 21:41 19.17694 -81.61120 1522 ft 170 kts 44°
2026-05-04 21:42 19.18473 -81.60224 1498 ft 162 kts 68°
2026-05-04 21:42 19.18408 -81.59094 1518 ft 159 kts 116°
2026-05-04 21:42 19.17921 -81.58058 1504 ft 159 kts 97°
2026-05-04 21:42 19.18250 -81.56968 1539 ft 161 kts 58°
2026-05-04 21:43 19.18852 -81.55933 1534 ft 168 kts 63°
2026-05-04 21:43 19.19413 -81.54873 1506 ft 163 kts 62°
2026-05-04 21:43 19.19954 -81.53854 1504 ft 159 kts 62°
2026-05-04 21:43 19.20500 -81.52831 1520 ft 162 kts 62°
2026-05-04 21:44 19.21054 -81.51796 1525 ft 162 kts 61°
2026-05-04 21:44 19.21615 -81.50754 1506 ft 163 kts 62°
2026-05-04 21:44 19.22224 -81.49745 1496 ft 162 kts 49°
2026-05-04 21:44 19.23032 -81.48936 1520 ft 162 kts 45°
2026-05-04 21:45 19.23830 -81.48091 1517 ft 163 kts 47°
2026-05-04 21:45 19.24632 -81.47223 1492 ft 167 kts 45°
2026-05-04 21:45 19.25442 -81.46347 1515 ft 165 kts 47°
2026-05-04 21:45 19.26227 -81.45493 1500 ft 159 kts 47°
2026-05-04 21:46 19.26980 -81.44667 1506 ft 153 kts 49°
2026-05-04 21:46 19.27421 -81.43667 1514 ft 150 kts 80°
2026-05-04 21:46 19.27636 -81.42584 1528 ft 151 kts 75°
2026-05-04 21:46 19.27903 -81.41500 1516 ft 152 kts 76°
2026-05-04 21:47 19.28167 -81.40416 1506 ft 151 kts 76°
2026-05-04 21:47 19.28427 -81.39342 1497 ft 151 kts 76°
2026-05-04 21:47 19.28691 -81.38247 1569 ft 157 kts 75°
2026-05-04 21:47 19.28973 -81.37071 1571 ft 171 kts 75°
2026-05-04 21:48 19.29297 -81.35846 1743 ft 176 kts 72°
2026-05-04 21:48 19.29661 -81.34584 2218 ft 184 kts 72°
2026-05-04 21:48 19.30044 -81.33252 2695 ft 192 kts 72°
2026-05-04 21:48 19.30433 -81.31897 3115 ft 192 kts 72°
2026-05-04 21:49 19.30828 -81.30512 3121 ft 197 kts 75°
2026-05-04 21:49 19.30813 -81.29113 3038 ft 190 kts 112°
2026-05-04 21:49 19.29975 -81.28073 3044 ft 189 kts 151°
2026-05-04 21:49 19.28713 -81.27781 3037 ft 189 kts 191°
2026-05-04 21:50 19.27639 -81.28502 3040 ft 186 kts 232°
2026-05-04 21:50 19.26720 -81.29437 3029 ft 187 kts 201°
2026-05-04 21:50 19.25461 -81.29391 3035 ft 188 kts 151°
2026-05-04 21:50 19.24589 -81.28389 3047 ft 190 kts 112°
2026-05-04 21:51 19.24489 -81.27010 3038 ft 192 kts 72°
2026-05-04 21:51 19.25268 -81.25891 2927 ft 191 kts 39°
2026-05-04 21:51 19.26250 -81.24930 2599 ft 196 kts 54°
2026-05-04 21:51 19.26864 -81.23642 2253 ft 196 kts 67°
2026-05-04 21:52 19.27363 -81.22319 2064 ft 191 kts 68°
2026-05-04 21:52 19.27843 -81.21030 1871 ft 186 kts 68°
2026-05-04 21:52 19.28313 -81.19766 1691 ft 182 kts 68°
2026-05-04 21:52 19.28768 -81.18541 1613 ft 179 kts 68°
2026-05-04 21:53 19.29220 -81.17320 1595 ft 175 kts 68°
2026-05-04 21:53 19.29849 -81.16294 1518 ft 165 kts 30°
2026-05-04 21:53 19.30937 -81.16194 1535 ft 163 kts 333°
2026-05-04 21:53 19.31735 -81.17005 1561 ft 164 kts 306°
2026-05-04 21:54 19.32511 -81.17920 1530 ft 166 kts 315°
2026-05-04 21:54 19.33325 -81.18754 1487 ft 161 kts 302°
2026-05-04 21:54 19.33470 -81.19898 1443 ft 161 kts 250°
2026-05-04 21:54 19.33067 -81.20992 1472 ft 165 kts 252°
2026-05-04 21:55 19.32737 -81.22162 1454 ft 165 kts 253°
2026-05-04 21:55 19.32415 -81.23316 1441 ft 162 kts 253°
2026-05-04 21:55 19.32092 -81.24457 1378 ft 162 kts 253°
2026-05-04 21:55 19.31769 -81.25586 1269 ft 158 kts 253°
2026-05-04 21:56 19.31451 -81.26693 1114 ft 157 kts 252°
2026-05-04 21:56 19.31159 -81.27794 1078 ft 153 kts 255°
2026-05-04 21:56 19.30906 -81.28872 1075 ft 149 kts 255°
2026-05-04 21:56 19.30656 -81.29940 1023 ft 149 kts 256°
2026-05-04 21:57 19.30407 -81.30983 918 ft 145 kts 253°
2026-05-04 21:57 19.30139 -81.32000 747 ft 143 kts 256°
2026-05-04 21:57 19.29909 -81.33010 468 ft 140 kts 259°
2026-05-04 21:57 19.29724 -81.33998 227 ft 132 kts 255°
2026-05-04 21:58 19.29482 -81.34908 37 ft 125 kts 255°
2026-05-04 21:58 19.29300 -81.35683 27 ft 81 kts 256°
2026-05-04 21:58 19.29205 -81.36081 25 ft 46 kts 255°
2026-05-04 21:58 19.29220 -81.36198 25 ft 14 kts 327°
2026-05-04 21:59 19.29239 -81.36207 26 ft 2 kts 337°
2026-05-04 21:59 19.29255 -81.36213 25 ft 3 kts 339°
2026-05-04 21:59 19.29277 -81.36227 26 ft 4 kts 322°
2026-05-04 21:59 19.29294 -81.36258 26 ft 5 kts 285°
2026-05-04 22:00 19.29284 -81.36300 28 ft 6 kts 232°
2026-05-04 22:00 19.29239 -81.36309 24 ft 8 kts 176°
2026-05-04 22:00 19.29182 -81.36290 25 ft 9 kts 143°
2026-05-04 22:00 19.29175 -81.36222 25 ft 10 kts 78°
2026-05-04 22:01 19.29196 -81.36144 24 ft 12 kts 77°
2026-05-04 22:01 19.29214 -81.36054 26 ft 13 kts 76°
2026-05-04 22:01 19.29238 -81.35954 25 ft 15 kts 73°
2026-05-04 22:01 19.29266 -81.35841 21 ft 16 kts 75°
2026-05-04 22:02 19.29357 -81.35811 25 ft 12 kts 347°
2026-05-04 22:02 19.29366 -81.35813 24 ft 0 kts 346°
2026-05-04 22:02 19.29390 -81.35808 25 ft 5 kts 24°
2026-05-04 22:02 19.29426 -81.35796 25 ft 6 kts 19°
2026-05-04 22:03 19.29461 -81.35796 25 ft 5 kts 347°
2026-05-04 22:03 19.29477 -81.35799 27 ft 2 kts 348°
2026-05-04 22:03 19.29497 -81.35804 26 ft 4 kts 346°
2026-05-04 22:03 19.29506 -81.35807 26 ft 1 kts 345°
2026-05-04 22:04 19.29508 -81.35807 26 ft 0 kts 345°
2026-05-04 22:05 19.29509 -81.35807 25 ft 0 kts 345°